EW1690 Weather Reports


time (UTC)temp
F
wind
direction
speed
knots
gust
knots
rain 1hr
in
rain 24hr
in
rain mn
in
humidity
%
barometer
mb
20260508044017 38 186 0.0 5.2 0.00 0.00 0.00 62 1014.6
20260508043512 38 189 0.9 7.0 0.00 0.00 0.00 62 1014.7
20260508043018 38 178 2.6 7.0 0.00 0.00 0.00 62 1014.6
20260508042507 38 164 2.6 6.1 0.00 0.00 0.00 63 1014.6
20260508042004 38 130 3.5 6.1 0.00 0.00 0.00 62 1014.5
20260508041502 38 131 2.6 4.3 0.00 0.00 0.00 62 1014.6
20260508041100 39 162 0.9 4.3 0.00 0.00 0.00 62 1014.6
20260508040558 39 180 0.9 4.3 0.00 0.00 0.00 60 1014.7
20260508040054 39 164 0.0 9.6 0.00 0.00 0.00 60 1014.8
20260508035552 39 214 2.6 9.6 0.00 0.00 0.00 59 1014.6
20260508035050 39 198 0.9 5.2 0.00 0.00 0.00 59 1014.6
20260508034551 39 158 0.9 2.6 0.00 0.00 0.00 58 1014.6
20260508034044 39 234 0.0 2.6 0.00 0.00 0.00 58 1014.9
20260508033543 39 182 0.0 6.1 0.00 0.00 0.00 57 1014.8
20260508033040 39 179 0.9 6.1 0.00 0.00 0.00 55 1014.8
20260508032638 39 153 0.0 3.5 0.00 0.00 0.00 57 1014.7
20260508032138 39 252 0.0 3.5 0.00 0.00 0.00 56 1015.0
20260508031534 40 232 0.9 2.6 0.00 0.00 0.00 55 1015.1
20260508031034 40 171 0.9 2.6 0.00 0.00 0.00 55 1014.9
20260508030635 40 184 0.0 2.6 0.00 0.00 0.00 55 1014.9
20260508030031 41 251 0.0 1.7 0.00 0.00 0.00 53 1014.9
20260508025528 41 252 0.0 2.6 0.00 0.00 0.00 52 1014.8
20260508025025 42 252 0.0 3.5 0.00 0.00 0.00 50 1015.0
20260508024526 42 245 0.9 3.5 0.00 0.00 0.00 49 1014.9
20260508024021 42 269 0.0 5.2 0.00 0.00 0.00 48 1014.9
20260508023518 43 264 0.0 5.2 0.00 0.00 0.00 48 1014.8
20260508023015 43 261 0.0 9.6 0.00 0.00 0.00 46 1014.7
20260508022514 43 325 1.7 9.6 0.00 0.00 0.00 44 1014.6
20260508022010 43 283 5.2 8.7 0.00 0.00 0.00 44 1014.6
20260508021508 43 302 2.6 8.7 0.00 0.00 0.00 45 1014.7
20260508021105 43 274 3.5 8.7 0.00 0.00 0.00 44 1014.8
20260508020603 43 275 4.3 8.7 0.00 0.00 0.00 44 1014.7
20260508020002 43 306 1.7 7.8 0.00 0.00 0.00 45 1014.6
20260508015558 43 275 4.3 10.4 0.00 0.00 0.00 45 1014.7
20260508015056 44 280 5.2 10.4 0.00 0.00 0.00 45 1014.6
20260508014553 44 293 6.1 13.0 0.00 0.00 0.00 44 1014.5
20260508014153 44 300 5.2 13.0 0.00 0.00 0.00 42 1014.5
20260508013548 45 250 4.3 14.8 0.00 0.00 0.00 40 1014.4
20260508013046 45 300 8.7 14.8 0.00 0.00 0.00 39 1014.3
20260508012545 45 279 7.0 12.2 0.00 0.00 0.00 38 1014.2
20260508012041 46 338 4.3 10.4 0.00 0.00 0.00 40 1014.3
20260508011538 46 316 0.9 7.0 0.00 0.00 0.00 43 1014.4
20260508010534 45 282 2.6 9.6 0.00 0.00 0.00 41 1014.4
20260508010034 45 275 4.3 9.6 0.00 0.00 0.00 41 1014.3
20260508005532 45 302 3.5 8.7 0.00 0.00 0.00 41 1014.3
20260508005034 45 282 0.9 9.6 0.00 0.00 0.00 41 1014.3
20260508004529 45 259 4.3 10.4 0.00 0.00 0.00 40 1014.4
20260508004127 45 269 3.5 9.6 0.00 0.00 0.00 40 1014.4
20260508003524 45 259 4.3 12.2 0.00 0.00 0.00 39 1014.4
20260508003022 46 277 6.1 12.2 0.00 0.00 0.00 39 1014.5
20260508002518 46 291 3.5 8.7 0.00 0.00 0.00 40 1014.6
20260508002017 47 275 1.7 8.7 0.00 0.00 0.00 40 1014.6
20260508001614 47 292 3.5 10.4 0.00 0.00 0.00 38 1014.5
20260508001011 49 301 5.2 13.0 0.00 0.00 0.00 36 1014.7
20260508000609 50 286 6.1 13.0 0.00 0.00 0.00 37 1014.7
20260508000006 50 281 5.2 12.2 0.00 0.00 0.00 35 1015.1
20260507235503 51 294 4.3 12.2 0.00 0.00 0.00 36 1015.0
20260507235059 50 276 3.5 12.2 0.00 0.00 0.00 37 1015.1
20260507234052 50 261 6.1 10.4 0.00 0.00 0.00 36 1014.9
20260507233550 50 308 3.5 10.4 0.00 0.00 0.00 37 1014.9
20260507233047 50 306 2.6 12.2 0.00 0.00 0.00 42 1015.1
20260507232544 49 295 7.0 15.6 0.00 0.00 0.00 39 1015.2
20260507232042 49 279 4.3 15.6 0.00 0.00 0.00 41 1015.2
20260507231546 48 320 7.0 14.8 0.00 0.00 0.00 41 1015.2
20260507231036 47 288 6.1 14.8 0.00 0.00 0.00 42 1015.3
20260507230534 48 304 7.0 13.0 0.00 0.00 0.00 39 1015.4
20260507230032 48 279 3.5 17.4 0.00 0.00 0.00 37 1015.5
20260507225532 48 300 9.6 17.4 0.00 0.02 0.00 39 1015.4
20260507225033 49 285 5.2 10.4 0.00 0.02 0.00 38 1015.5
20260507224123 50 284 6.1 15.6 0.00 0.02 0.00 40 1015.4
20260507223519 48 322 4.3 9.6 0.00 0.02 0.00 44 1015.5
20260507223016 46 316 1.7 6.1 0.00 0.02 0.00 47 1015.7
20260507222514 46 340 2.6 7.0 0.00 0.02 0.00 47 1015.8
20260507222011 46 299 1.7 7.0 0.00 0.02 0.00 46 1015.8
20260507221508 46 327 0.9 7.8 0.00 0.02 0.00 47 1015.9
20260507221002 46 281 1.7 5.2 0.00 0.02 0.00 45 1016.0
20260507220559 46 332 1.7 7.8 0.00 0.02 0.00 46 1016.1
20260507220057 46 315 3.5 7.8 0.00 0.02 0.00 42 1016.3
20260507215557 46 331 0.9 8.7 0.00 0.05 0.00 44 1016.3
20260507215053 47 279 4.3 10.4 0.00 0.05 0.00 41 1016.5
20260507214549 47 304 5.2 10.4 0.00 0.05 0.00 39 1016.6
20260507214046 47 293 3.5 9.6 0.00 0.05 0.00 41 1016.7
20260507213548 46 329 5.2 13.0 0.00 0.05 0.00 42 1016.8
20260507213143 46 287 3.5 14.8 0.00 0.05 0.00 42 1016.9
20260507212639 47 318 5.2 14.8 0.00 0.05 0.00 40 1017.0
20260507212035 48 289 6.1 10.4 0.00 0.05 0.00 38 1017.0
20260507211535 48 324 6.1 14.8 0.00 0.05 0.00 39 1017.2
20260507211032 49 296 6.1 14.8 0.00 0.05 0.00 43 1017.3
20260507210029 48 298 6.1 11.3 0.00 0.05 0.00 43 1017.7
20260507205526 48 313 4.3 13.9 0.00 0.15 0.00 41 1017.9
20260507205021 48 284 5.2 13.9 0.00 0.15 0.00 43 1017.8
20260507204518 48 333 3.5 15.6 0.00 0.15 0.00 43 1017.9
20260507204017 48 292 4.3 15.6 0.00 0.15 0.00 44 1017.9
20260507203521 48 281 5.2 16.5 0.00 0.15 0.00 43 1017.9
20260507203015 48 294 8.7 17.4 0.00 0.15 0.00 43 1018.0
20260507202610 47 331 3.5 17.4 0.00 0.15 0.00 44 1018.1
20260507202006 48 302 6.1 15.6 0.00 0.15 0.00 44 1018.2
20260507201504 48 296 8.7 15.6 0.00 0.15 0.00 43 1018.3
20260507201002 47 313 6.1 14.8 0.00 0.15 0.00 44 1018.3
20260507200601 47 320 6.1 14.8 0.00 0.15 0.00 45 1018.3
20260507200103 47 332 7.0 13.9 0.00 0.15 0.00 42 1018.4
20260507195555 48 263 5.2 12.2 0.00 0.28 0.00 45 1018.5
20260507195052 48 310 6.1 12.2 0.00 0.28 0.00 45 1018.5
20260507194652 48 300 2.6 15.6 0.00 0.28 0.00 46 1018.6
20260507194048 48 355 6.1 10.4 0.00 0.28 0.00 44 1018.7
20260507193544 48 9 2.6 10.4 0.00 0.28 0.00 47 1018.8
20260507193049 47 286 1.7 13.0 0.00 0.28 0.00 47 1018.9
20260507192541 47 306 3.5 13.0 0.00 0.28 0.00 49 1018.9
20260507192037 47 273 4.3 13.9 0.00 0.28 0.00 46 1019.0
20260507191534 47 288 6.1 13.9 0.00 0.28 0.00 44 1019.1
20260507191133 47 274 4.3 11.3 0.00 0.28 0.00 48 1019.3
20260507190529 47 349 3.5 8.7 0.00 0.28 0.00 49 1019.6
20260507190027 46 286 3.5 8.7 0.00 0.28 0.00 49 1019.7
20260507185522 45 11 0.9 7.0 0.00 0.33 0.00 50 1019.8
20260507185119 44 314 1.7 7.0 0.00 0.33 0.00 48 1019.7
20260507184517 43 197 0.9 3.5 0.00 0.33 0.00 52 1019.9
20260507184015 43 262 0.9 2.6 0.00 0.33 0.00 48 1019.9
20260507183511 43 216 0.0 1.7 0.00 0.33 0.00 52 1019.9
20260507183009 43 294 0.0 2.6 0.00 0.33 0.00 48 1020.1
20260507182508 42 302 0.0 2.6 0.00 0.33 0.00 48 1020.2
20260507182007 42 211 0.0 1.7 0.00 0.33 0.00 47 1020.2
20260507181505 42 158 0.0 1.7 0.00 0.33 0.00 48 1020.2
20260507181100 42 159 0.0 2.6 0.00 0.33 0.00 50 1020.3
20260507180558 42 98 0.0 2.6 0.00 0.33 0.00 49 1020.3
20260507180054 42 158 0.9 1.7 0.00 0.33 0.00 52 1020.7
20260507175551 42 159 0.0 1.7 0.00 0.35 0.00 49 1020.7
20260507175049 42 157 0.0 2.6 0.00 0.35 0.00 47 1020.8
20260507174557 42 161 0.0 3.5 0.00 0.35 0.00 48 1020.7
20260507174044 42 348 0.9 3.5 0.00 0.35 0.00 46 1020.8
20260507173542 43 141 0.9 4.3 0.00 0.35 0.00 48 1020.9
20260507173044 43 197 0.9 4.3 0.00 0.35 0.00 47 1020.8
20260507172542 44 233 0.9 5.2 0.00 0.35 0.00 46 1020.8
20260507172035 45 314 0.0 1.7 0.00 0.35 0.00 47 1020.8
20260507171538 45 293 0.0 2.6 0.00 0.35 0.00 48 1020.9
20260507171034 44 21 0.9 3.5 0.00 0.35 0.00 45 1021.1
20260507170530 45 355 0.9 3.5 0.00 0.35 0.00 46 1021.2
20260507165524 45 329 1.7 3.5 0.00 0.35 0.00 47 1021.5
20260507165020 44 18 0.0 4.3 0.00 0.35 0.00 46 1021.6
20260507164517 43 33 0.9 4.3 0.00 0.35 0.00 49 1021.7
20260507164014 43 119 0.0 2.6 0.00 0.35 0.00 48 1021.8
20260507163512 43 115 0.9 2.6 0.00 0.35 0.00 49 1021.8
20260507163129 42 121 0.0 2.6 0.00 0.35 0.00 50 1021.8
20260507162504 41 104 0.0 2.6 0.00 0.35 0.00 53 1022.0
20260507162000 39 19 0.0 1.7 0.00 0.35 0.00 59 1022.2
20260507161559 38 348 0.9 1.7 0.00 0.35 0.00 58 1022.4
20260507161056 38 318 0.0 5.2 0.00 0.35 0.00 56 1022.6
20260507160555 38 288 0.9 5.2 0.00 0.35 0.00 58 1022.8
20260507160053 38 296 1.7 4.3 0.00 0.35 0.00 59 1023.0
20260507155546 38 302 0.9 5.2 0.00 0.35 0.00 59 1023.1
20260507155144 37 313 0.9 7.0 0.00 0.35 0.00 60 1023.1
20260507154540 37 300 1.7 7.8 0.00 0.35 0.00 61 1023.1
20260507154037 37 309 2.6 8.7 0.00 0.35 0.00 62 1023.2
20260507153535 37 283 4.3 10.4 0.00 0.35 0.00 61 1023.2
20260507153032 37 302 5.2 13.0 0.00 0.35 0.00 63 1023.1
20260507152529 35 299 6.1 13.0 0.00 0.35 0.00 64 1023.1
20260507152127 35 315 7.0 13.0 0.00 0.35 0.00 63 1023.0
20260507151522 34 304 5.2 11.3 0.00 0.35 0.00 65 1023.1
20260507151018 33 322 4.3 10.4 0.00 0.35 0.00 64 1023.2
20260507150521 33 286 1.7 7.0 0.00 0.35 0.00 65 1023.6
20260507150015 33 274 0.0 2.6 0.00 0.35 0.00 65 1023.6
20260507145518 33 275 0.9 2.6 0.00 0.35 0.00 63 1023.7
20260507145110 33 237 0.9 2.6 0.00 0.35 0.00 64 1023.7
20260507144506 33 188 0.0 6.1 0.00 0.35 0.00 65 1023.8
20260507144002 33 248 1.7 7.0 0.00 0.35 0.00 64 1023.8
20260507143600 33 235 1.7 7.0 0.00 0.35 0.00 62 1023.6
20260507143057 33 323 1.7 8.7 0.00 0.35 0.00 63 1023.7
20260507142554 33 277 3.5 10.4 0.00 0.35 0.00 62 1023.7
20260507142050 32 295 3.5 10.4 0.00 0.35 0.00 63 1023.8
20260507141610 32 271 3.5 11.3 0.00 0.35 0.00 63 1023.8
20260507141047 32 292 5.2 11.3 0.00 0.35 0.00 61 1023.9
20260507140543 32 280 5.2 11.3 0.00 0.35 0.00 60 1023.9
20260507140041 32 318 2.6 8.7 0.00 0.35 0.00 60 1024.0
20260507135638 32 291 2.6 8.7 0.00 0.35 0.00 59 1023.9
20260507135038 32 332 3.5 7.0 0.00 0.35 0.00 58 1023.9
20260507134633 32 342 2.6 9.6 0.00 0.35 0.00 59 1024.0
20260507134031 32 239 2.6 7.0 0.00 0.35 0.00 60 1023.9
20260507133527 31 285 1.7 6.1 0.00 0.35 0.00 60 1024.0
20260507133025 31 291 1.7 8.7 0.00 0.35 0.00 62 1023.9
20260507132521 30 321 0.9 8.7 0.00 0.35 0.00 62 1023.9
20260507132118 30 298 1.7 8.7 0.00 0.35 0.00 62 1023.8
20260507131515 30 271 1.7 11.3 0.00 0.35 0.00 63 1023.8
20260507131014 29 276 4.3 11.3 0.00 0.35 0.00 65 1023.7
20260507130510 29 314 3.5 8.7 0.00 0.35 0.00 65 1023.6
20260507130003 28 275 3.5 8.7 0.00 0.35 0.00 67 1023.6
20260507125600 27 308 2.6 7.8 0.00 0.35 0.00 68 1023.5
20260507125058 27 315 1.7 7.8 0.00 0.35 0.00 68 1023.6
20260507124656 27 308 0.9 6.1 0.00 0.35 0.00 67 1023.6
20260507124053 27 288 2.6 6.1 0.00 0.35 0.00 66 1023.6
20260507123550 26 277 0.9 6.1 0.00 0.35 0.00 65 1023.7
20260507123050 27 304 0.9 6.1 0.00 0.35 0.00 64 1023.6
20260507122545 27 296 0.9 7.8 0.00 0.35 0.00 64 1023.6
20260507122042 27 253 3.5 7.8 0.00 0.35 0.00 63 1023.5
20260507121540 27 327 2.6 7.8 0.00 0.35 0.00 64 1023.7
20260507121038 26 319 3.5 7.8 0.00 0.35 0.00 66 1023.6
20260507120535 26 287 2.6 7.8 0.00 0.35 0.00 65 1023.7
20260507120032 25 161 1.7 8.7 0.00 0.35 0.00 66 1023.6
20260507115532 25 271 2.6 8.7 0.00 0.35 0.00 68 1023.7
20260507115030 23 261 1.7 6.1 0.00 0.35 0.00 72 1023.7
20260507114528 22 237 0.9 4.3 0.00 0.35 0.00 72 1023.7
20260507114025 23 181 0.0 2.6 0.00 0.35 0.00 72 1023.5
20260507113524 23 186 0.0 1.7 0.00 0.35 0.00 71 1023.5
20260507113020 23 155 0.0 2.6 0.00 0.35 0.00 71 1023.5
20260507112520 23 156 0.0 2.6 0.00 0.35 0.00 71 1023.5
20260507112016 23 263 0.0 1.7 0.00 0.35 0.00 70 1023.7
20260507111517 24 260 0.0 1.7 0.00 0.35 0.00 69 1023.8
20260507111011 24 260 0.0 2.6 0.00 0.35 0.00 68 1023.8
20260507110512 25 273 0.0 7.0 0.00 0.35 0.00 68 1023.7
20260507110106 24 266 1.7 7.0 0.00 0.35 0.00 68 1023.8
20260507105100 24 281 0.9 4.3 0.00 0.35 0.00 69 1023.8
20260507104603 24 266 0.9 4.3 0.00 0.35 0.00 69 1023.8
20260507104055 23 261 0.0 7.0 0.00 0.35 0.00 69 1023.9
20260507103556 23 256 0.9 4.3 0.00 0.35 0.00 71 1024.0
20260507103052 23 232 0.0 2.6 0.00 0.35 0.00 69 1023.9
20260507102550 23 206 0.0 2.6 0.00 0.35 0.00 68 1024.1
20260507102045 23 180 0.0 2.6 0.00 0.35 0.00 68 1024.0
20260507101548 23 180 0.0 2.6 0.00 0.35 0.00 67 1024.0
20260507101043 24 340 0.0 1.7 0.00 0.35 0.00 66 1024.0
20260507100641 24 344 0.0 3.5 0.00 0.35 0.00 66 1023.9
20260507100041 24 321 0.9 3.5 0.00 0.35 0.00 66 1023.9
20260507095537 24 287 0.9 2.6 0.00 0.35 0.00 66 1023.8
20260507095033 24 275 0.0 6.1 0.00 0.35 0.00 65 1023.8
20260507094541 24 277 0.0 3.5 0.00 0.35 0.00 64 1023.7
20260507094031 25 180 0.9 2.6 0.00 0.35 0.00 62 1023.8
20260507093531 25 194 0.0 6.1 0.00 0.35 0.00 61 1023.8
20260507093034 25 355 1.7 6.1 0.00 0.35 0.00 61 1024.0
20260507092024 25 259 0.9 3.5 0.00 0.35 0.00 60 1024.0
20260507091528 25 308 1.7 6.1 0.00 0.35 0.00 61 1023.9
20260507091023 25 311 1.7 6.1 0.00 0.35 0.00 60 1023.9
20260507090521 26 286 2.6 7.0 0.00 0.35 0.00 58 1024.1
20260507090018 26 296 1.7 7.8 0.00 0.35 0.00 57 1024.2
20260507085009 26 299 3.5 8.7 0.00 0.35 0.00 57 1024.2
20260507084003 27 281 2.6 9.6 0.00 0.35 0.00 56 1024.0
20260507083501 27 320 1.7 12.2 0.00 0.35 0.00 54 1024.0
20260507083100 27 315 5.2 14.8 0.00 0.35 0.00 54 1024.0
20260507082558 27 286 5.2 16.5 0.00 0.35 0.00 54 1023.9
20260507082052 27 267 7.8 19.1 0.00 0.35 0.00 56 1023.9
20260507081550 26 296 7.8 19.1 0.00 0.35 0.00 57 1023.9
20260507081048 25 333 1.7 7.8 0.00 0.35 0.00 57 1024.0
20260507080647 25 325 2.6 13.9 0.00 0.35 0.00 58 1024.1
20260507080045 25 324 5.2 13.9 0.00 0.35 0.00 58 1024.1
20260507075538 24 256 3.5 10.4 0.00 0.35 0.00 60 1024.1
20260507075136 24 298 1.7 9.6 0.00 0.35 0.00 62 1024.1
20260507074532 23 290 2.6 7.0 0.00 0.35 0.00 64 1024.3
20260507074031 23 322 0.9 5.2 0.00 0.35 0.00 66 1024.5
20260507073531 23 265 0.9 7.0 0.00 0.35 0.00 66 1024.4
20260507073027 23 287 2.6 7.8 0.00 0.35 0.00 67 1024.4
20260507072525 23 314 3.5 8.7 0.00 0.35 0.00 67 1024.2
20260507072022 23 288 4.3 12.2 0.00 0.35 0.00 68 1024.3
20260507071520 23 317 4.3 12.2 0.00 0.35 0.00 68 1024.2
20260507070515 23 300 6.1 10.4 0.00 0.35 0.00 70 1024.1
20260507065607 23 269 2.6 8.7 0.00 0.35 0.00 70 1024.1
20260507065004 23 311 2.6 9.6 0.00 0.35 0.00 69 1024.3
20260507064602 23 302 2.6 7.0 0.00 0.35 0.00 68 1024.2
20260507064102 24 320 2.6 10.4 0.00 0.35 0.00 68 1024.3
20260507063557 24 327 4.3 10.4 0.00 0.35 0.00 66 1024.3
20260507063054 24 321 5.2 10.4 0.00 0.35 0.00 67 1024.2
20260507062551 24 312 5.2 9.6 0.00 0.35 0.00 67 1024.2
20260507061647 23 318 3.5 7.8 0.00 0.35 0.00 68 1024.1
20260507061042 24 306 2.6 7.8 0.00 0.35 0.00 67 1024.1
20260507060540 24 305 2.6 7.8 0.00 0.35 0.00 68 1024.1
20260507060137 24 319 3.5 7.8 0.00 0.35 0.00 68 1024.1
20260507055536 23 309 1.7 4.3 0.00 0.35 0.35 70 1024.0
20260507055034 24 327 0.9 6.1 0.00 0.35 0.35 69 1023.9
20260507054544 24 313 1.7 8.7 0.00 0.35 0.35 67 1024.0
20260507054034 23 274 3.5 8.7 0.00 0.35 0.35 68 1023.9
20260507053532 24 313 0.9 7.8 0.00 0.35 0.35 68 1024.0
20260507053030 24 291 0.9 2.6 0.00 0.35 0.35 68 1024.2
20260507052527 24 270 0.9 4.3 0.00 0.35 0.35 69 1024.2
20260507052025 24 273 0.9 4.3 0.00 0.35 0.35 68 1023.9
20260507051522 24 261 0.0 3.5 0.00 0.35 0.35 67 1023.9
20260507051019 25 205 0.0 8.7 0.00 0.35 0.35 67 1023.8
20260507050516 25 126 2.6 8.7 0.00 0.35 0.35 66 1023.7
20260507050114 25 318 0.0 7.0 0.00 0.35 0.35 66 1023.6
20260507045511 24 355 0.0 6.1 0.00 0.35 0.35 67 1023.6
20260507045007 24 121 0.9 6.1 0.00 0.35 0.35 67 1023.3
20260507044513 24 132 0.0 6.1 0.00 0.35 0.35 69 1023.3